Regional Weather Roundup
Issued by NWS

Home | Current Version | Previous Version | Text Only | Print | Product List | Glossary Off
Versions: 1 2 3 4 5 6 7 8 9 10 11 12 13 14 15 16 17 18 19 20 21 22 23 24 25 26 27 28 29 30 31 32 33 34 35 36 37 38 39 40 41 42 43 44 45 46 47 48 49 50

000
ASUS43 KOAX 231610
RWRNE

WEATHER ROUNDUP FOR NEBRASKA
NATIONAL WEATHER SERVICE OMAHA NE
1100 AM CDT TUE AUG 23 2016

NOTES: SATELLITE DATA IS BEING USED TO AUGMENT CLOUD COVER ABOVE
       12000 FEET.
       "FAIR" INDICATES FEW OR NO CLOUDS BELOW 12,000 FEET WITH NO
       SIGNIFICANT WEATHER AND/OR OBSTRUCTIONS TO VISIBILITY.

  * THESE STATIONS DO NOT REPORT WEATHER SUCH AS RAIN...SNOW OR FOG.

NEZ001>004-019>022-054>056-231700-
NEBRASKA PANHANDLE

CITY           SKY/WX    TMP DP  RH WIND       PRES   REMARKS
SCOTTSBLUFF    SUNNY     74  47  38 W8        29.96R
ALLIANCE       SUNNY     76  43  30 NW20      29.90R
CHADRON        SUNNY     76  31  19 W21G31    29.90R
KIMBALL        SUNNY     76  37  24 NW17G25   30.01R
SIDNEY         SUNNY     80  37  21 NW20      29.97R
$$

NEZ057>060-069>072-079>082-231700-
SOUTHWEST NEBRASKA

CITY           SKY/WX    TMP DP  RH WIND       PRES   REMARKS
NORTH PLATTE   SUNNY     78  65  63 SW7       29.84R
IMPERIAL       SUNNY     75  62  64 NW7       29.88R
LEXINGTON      MOSUNNY   77  67  71 S9G18     29.84R
MCCOOK         SUNNY     77  64  64 SW5       29.83S
OGALLALA       SUNNY     76  62  60 W6        29.87S
$$

NEZ005>010-023>029-035>040-094-231700-
NORTH CENTRAL NEBRASKA

CITY           SKY/WX    TMP DP  RH WIND       PRES   REMARKS
VALENTINE      SUNNY     81  61  50 SW16      29.78S
AINSWORTH      SUNNY     77  65  66 S15       29.80S
BROKEN BOW     CLOUDY    74  67  78 S12G23    29.83F
O`NEILL        MOSUNNY   77  64  65 S21       29.83F
ORD            CLOUDY    72  66  81 S9        29.83S
THEDFORD       SUNNY     78  65  62 S13G21    29.83F
$$

NEZ041-046>049-061>064-073>077-083>087-231700-
SOUTH CENTRAL NEBRASKA

CITY           SKY/WX    TMP DP  RH WIND       PRES   REMARKS
GRAND ISLAND   CLOUDY    77  68  73 S15G23    29.86S
AURORA         CLOUDY    78  71  79 S18G24    29.86F
HASTINGS       MOSUNNY   79  68  69 S15G25    29.86S
HEBRON         CLOUDY    78  70  77 S12G22    29.90S
HOLDREGE       MOSUNNY   78  66  65 S14G23    29.84S
KEARNEY *      PTSUNNY   79  66  65 S18G24    29.83S
YORK           CLOUDY    75  70  83 S17G24    29.88S
$$

NEZ011>018-030>034-042>045-231700-
NORTHEAST NEBRASKA

CITY           SKY/WX    TMP DP  RH WIND       PRES   REMARKS
NORFOLK        TSTM      64  63  96 SW5       29.89R FOG
ALBION         CLOUDY    69  66  93 SE7       29.87F FOG
BLAIR          CLOUDY    72  68  89 S12G20    29.95R
FREMONT        CLOUDY    73  68  86 SE10G20   29.92S
TEKAMAH        CLOUDY    73  67  81 S13G22    29.93S
WAYNE          CLOUDY    69  68  96 S8        29.90F FOG
$$

NEZ050>053-065>068-078-088>093-231700-
SOUTHEAST NEBRASKA

CITY           SKY/WX    TMP DP  RH WIND       PRES   REMARKS
LINCOLN        CLOUDY    77  71  82 S15       29.92S
OMAHA EPPLEY   CLOUDY    73  67  81 SE16      29.95S
BEATRICE       CLOUDY    76  71  82 S16       29.94R
FALLS CITY     CLOUDY    77  71  82 S15G28    29.97F
NEBRASKA CITY  CLOUDY    74  73  98 S10G16    29.97R
PLATTSMOUTH    CLOUDY    73  70  91 SE10G18   29.96F
$$

NEZ044-045-051>053-067-231700-
OMAHA AREA

CITY           SKY/WX    TMP DP  RH WIND       PRES   REMARKS
OMAHA EPPLEY   CLOUDY    73  67  81 SE16      29.95S
BLAIR          CLOUDY    72  68  89 S12G20    29.95R
FREMONT        CLOUDY    73  68  86 SE10G20   29.92S
MILLARD        CLOUDY    74  70  87 SE10      29.94S
OFFUTT AFB     CLOUDY    73  70  88 SE14      29.94S
PLATTSMOUTH    CLOUDY    73  70  91 SE10G18   29.96F
WAHOO          CLOUDY    73  69  87 SE13G18   29.92S
$$




USA.gov is the U.S. government's official web portal to all federal, state and local government web resources and services.